Regional Weather Roundup
Issued by NWS Sterling, VA

Home | Current Version | Previous Version | Graphics & Text | Print | Product List | Glossary On
Versions: 1 2 3 4 5 6 7 8 9 10 11 12 13 14 15 16 17 18 19 20 21 22 23 24 25 26 27 28 29 30 31 32 33 34 35 36 37 38 39 40 41 42 43 44 45 46 47 48 49 50
297
ASUS41 KLWX 261710
RWRLWX

REGIONAL WEATHER ROUNDUP
NATIONAL WEATHER SERVICE BALTIMORE MD/WASHINGTON DC
100 PM EDT THU MAY 26 2016

Note: "FAIR" indicates few or no clouds below 12,000 feet
with no significant weather and/or obstructions to visibility.
 TC=TEMPERATURE CELSIUS

 * =Non NWS site. Station does not report precipitation (e.g. rain,
    snow, etc.), thunder, or fog.

DCZ001-MDZ009-015-VAZ040>042-051-053>054-261800-
WASHINGTON METRO

CITY           SKY/WX    TMP DP  RH WIND       PRES   REMARKS
WASHINGTON NAT PTSUNNY   82  65  56 S13       30.08F
DULLES         PTSUNNY   85  62  46 CALM      30.08F
ANDREWS AFB    MOSUNNY   86  62  44 SW8       30.07F
FT BELVOIR     FAIR      84  65  51 SE8       30.08F
QUANTICO       FAIR      80  66  62 SW5       30.09F
COLLEGE PARK*  FAIR      86  59  39 S6        30.07F
LEESBURG*      FAIR      86  64  48 SW3       30.09F
MANASSAS*      SUNNY     84  64  51 S6        30.08F

$$

MDZ006>007-011-014-261800-
BALTIMORE METRO

CITY           SKY/WX    TMP DP  RH WIND       PRES   REMARKS
BWI AIRPORT    PTSUNNY   87  60  40 SW8G17    30.07F
MD SCIENCE CTR   N/A     85  62  46 MISG      30.07F
MARTIN STATE   MOSUNNY   82  64  54 SE9       30.10F
ANNAPOLIS      SUNNY     74  64  71 SE13      30.08F
FORT MEADE*    SUNNY     86  61  42 SW7       30.09F

$$

MDZ012-015-019>023-261800-
MARYLAND EASTERN SHORE

CITY           SKY/WX    TMP DP  RH WIND       PRES   REMARKS
OCEAN CITY     SUNNY     73  65  75 S7        30.12F
SALISBURY      SUNNY     88  58  36 SW9       30.10F
BAY BRIDGE AP* SUNNY     84  61  45 S8        30.09F
CAMBRIDGE*     SUNNY     84  59  42 SW9       30.10S
EASTON*        MOSUNNY   90  66  45 SW9       30.13F HX  92

$$

MDZ017>025-261800-
SOUTHERN MARYLAND

CITY           SKY/WX    TMP DP  RH WIND       PRES   REMARKS
PATUXENT RIVER MOSUNNY   80  66  62 SE7       30.09F
ST INIGOES     SUNNY     86  64  47 S7        30.09F
LEONARDTOWN*   SUNNY     86  59  39 SW10      30.11F

$$

MDZ003>005-261800-
NORTH CENTRAL MARYLAND

CITY           SKY/WX    TMP DP  RH WIND       PRES   REMARKS
FREDERICK*     SUNNY     84  64  51 SW7       30.11F
HAGERSTOWN APT SUNNY     83  57  41 W8        30.09F
WESTMINSTER*   SUNNY     88  82  84 S10       30.09F HX 108

$$

MDZ501>502-261800-
WESTERN MARYLAND

CITY           SKY/WX    TMP DP  RH WIND       PRES   REMARKS
OAKLAND*       CLOUDY    70  55  60 SW8       30.19S
CUMBERLAND*    SUNNY     82  61  47 SE8       30.11F

$$

VAZ025>031-261800-
SHENANDOAH VALLEY

CITY           SKY/WX    TMP DP  RH WIND       PRES   REMARKS
WINCHESTER*    FAIR      82  61  47 SW9       30.10F
FRONT ROYAL*   FAIR      81  63  54 SW5       30.09F
LURAY*         FAIR      82  61  47 S7        30.11F
NEW MARKET*    FAIR      82  64  53 S8        30.09F
STAUNTON*      FAIR      79  61  54 S7        30.15F
WAYNESBORO*    FAIR      80  60  51 SW7       30.15F

$$

WVZ021-048>050-054>055-261800-
EASTERN WEST VIRGINIA PANHANDLE

CITY           SKY/WX    TMP DP  RH WIND       PRES   REMARKS
MARTINSBURG    FAIR      84  61  45 CALM      30.07F
PETERSBURG*    FAIR      83  64  53 SE6       30.09F

$$

VAZ036>039-050-261800-
CENTRAL FOOTHILLS

CITY           SKY/WX    TMP DP  RH WIND       PRES   REMARKS
CHARLOTTESVILL FAIR      84  62  47 W6        30.10F
CULPEPER*      FAIR      87  65  49 S7        30.09F
ORANGE*        FAIR      88  63  42 SW8       30.11F
GORDONSVILLE*  FAIR      86  63  45 SW6       30.09F
WARRENTON*     FAIR      87  59  38 SW7       30.09S

$$

VAZ055>057-261800-
NORTH AND CENTRAL PIEDMONT

CITY           SKY/WX    TMP DP  RH WIND       PRES   REMARKS
FREDERICKSBRG* NOT AVBL
STAFFORD*      FAIR      86  60  42 SW8       30.12F

$$

NCZ024-NYZ072-PAZ021-071-VAZ022-071-261800-
OTHER REGIONAL OBSERVATIONS

CITY           SKY/WX    TMP DP  RH WIND       PRES   REMARKS
NEW YORK CITY  SUNNY     88  52  29 VRB5      30.09F
PHILADELPHIA   PTSUNNY   86  54  33 SW9       30.08F
PITTSBURGH     CLOUDY    79  60  52 S10       30.08F
ROANOKE        PTSUNNY   79  63  57 CALM      30.18F
RICHMOND       PTSUNNY   86  63  45 SW10      30.11F
RALEIGH        MOSUNNY   87  63  44 W9        30.15F

$$

ANZ530>537-261800-
MARINE OBSERVATIONS

STATION/POSITION TIME  TEMP    WIND        PRES
                       AIR SEA DIR/SP/G
                 (UTC) (F)     (DEG/KT/KT) (MB)
THOMAS PT LIGHT  1700   71 65  160/  9/  9 1020.0F
BALT KEY BRIDGE  1600   74      80/  7/  8 1018.8F
COVE POINT       1600   68     180/ 12/ 12 1020.2R
LEWISETTA        1600   84 71  250/  8/ 10 1019.1F
SOLOMONS ISLAND  1600   74 64   90/  7/  8   N/A
PINEY POINT      1600          130/  3/  4   N/A

$$





USA.gov is the U.S. government's official web portal to all federal, state and local government web resources and services.